Weather History for Alliance, NE

Change the Weather History Date:

Monday, March 4, 2013

  Actual Average Record
Temperature  
Mean Temperature 29 °F 32 °F  
Max Temperature 38 °F 47 °F 76 °F (2009)
Min Temperature 20 °F 18 °F -10 °F (1960)
Degree Days  
Heating Degree Days 36 33  
Month to date heating degree days 104 133  
Since 1 July heating degree days 5217 5537  
Cooling Degree Days 0 0  
Month to date cooling degree days 0 0  
Year to date cooling degree days 0 0  
Moisture  
Dew Point 12 °F    
Average Humidity 52    
Maximum Humidity 75    
Minimum Humidity 29    
Precipitation  
Precipitation 0.00 in 0.01 in 0.29 in (1980)
Month to date precipitation 0.00 0.03  
Year to date precipitation 0.52 0.59  
Sea Level Pressure  
Sea Level Pressure 29.96 in    
Wind  
Wind Speed 21 mph (NW)    
Max Wind Speed 39 mph    
Max Gust Speed 54 mph    
Visibility 10 miles    
Events      
T = Trace of Precipitation, MM = Missing Value Source: NWS Daily Summary

Daily Weather History Graph

Daily Weather History Graph

Search for Another Location

Airport:

Trip Planner

Search our weather history database for the weather conditions in past years. The results will help you decide how hot, cold, wet, or windy it might be!

Date:

Astronomy

Mar. 04, 2013 Rise Set
Actual Time 6:20 AM MST 5:45 PM MST
Civil Twilight 5:53 AM MST 6:13 PM MST
Nautical Twilight 5:20 AM MST 6:45 PM MST
Astronomical Twilight 4:48 AM MST 7:18 PM MST
Moon 12:37 AM MST (3/4) 10:24 AM MST (3/4)
Length of Visible Light 12h 20m
Length of Day
11h 24m
Waning Gibbous, 51% of the Moon is Illuminated
Mar 4
Waning Gibbous
Mar 4
Last Quarter
Mar 11
New
Mar 19
First Quarter
Mar 27
Full

Hourly Weather History & Observations

Time (MST) Temp. Windchill Dew Point Humidity Pressure Visibility Wind Dir Wind Speed Gust Speed Precip Events Conditions
12:53 AM 32.0 °F 19.5 °F 24.1 °F 73% 29.67 in 10.0 mi NW 21.9 mph 29.9 mph N/A   Clear
1:53 AM 30.2 °F 19.8 °F 23.0 °F 75% 29.73 in 10.0 mi NNW 13.8 mph - N/A   Scattered Clouds
2:53 AM 30.0 °F 19.5 °F 21.9 °F 72% 29.72 in 10.0 mi NNW 13.8 mph - N/A   Mostly Cloudy
3:53 AM 30.9 °F 21.7 °F 21.9 °F 69% 29.73 in 10.0 mi NW 11.5 mph - N/A   Overcast
4:53 AM 30.9 °F 22.8 °F 21.9 °F 69% 29.76 in 10.0 mi NNW 9.2 mph - N/A   Overcast
5:53 AM 30.9 °F 22.2 °F 21.9 °F 69% 29.81 in 10.0 mi NW 10.4 mph - N/A   Overcast
6:53 AM 32.0 °F 22.5 °F 17.1 °F 54% 29.83 in 10.0 mi NNW 12.7 mph 20.7 mph N/A   Overcast
7:53 AM 33.1 °F 20.6 °F 17.1 °F 52% 29.85 in 10.0 mi NW 23.0 mph 27.6 mph N/A   Partly Cloudy
8:53 AM 35.1 °F 23.3 °F 15.1 °F 44% 29.86 in 10.0 mi NW 23.0 mph 31.1 mph N/A   Clear
9:53 AM 34.0 °F 21.8 °F 12.0 °F 40% 29.87 in 10.0 mi NNW 23.0 mph 29.9 mph N/A   Clear
10:53 AM 36.0 °F 26.3 °F 12.0 °F 37% 29.87 in 10.0 mi NNW 16.1 mph 29.9 mph N/A   Clear
11:53 AM 37.0 °F 25.4 °F 10.0 °F 33% 29.90 in 10.0 mi NW 25.3 mph 33.4 mph N/A   Mostly Cloudy
12:53 PM 35.1 °F 22.5 °F 6.1 °F 30% 29.92 in 10.0 mi NW 26.5 mph 36.8 mph N/A   Mostly Cloudy
1:53 PM 34.0 °F 20.8 °F 8.1 °F 34% 29.94 in 10.0 mi NW 27.6 mph 38.0 mph N/A   Clear
2:53 PM 34.0 °F 18.7 °F 6.1 °F 31% 29.98 in 9.0 mi NW 39.1 mph 49.5 mph N/A   Partly Cloudy
3:53 PM 30.0 °F 13.4 °F 5.0 °F 35% 30.02 in 8.0 mi NNW 38.0 mph 48.3 mph N/A   Partly Cloudy
4:09 PM 30.2 °F 13.7 °F 5.0 °F 34% 29.96 in 7.0 mi NNW 38.0 mph 48.3 mph N/A   Mostly Cloudy
4:48 PM 28.4 °F 14.4 °F 5.0 °F 37% 30.01 in 10.0 mi NNW 23.0 mph 42.6 mph N/A   Partly Cloudy
4:53 PM 28.0 °F 12.5 °F 5.0 °F 38% 30.09 in 10.0 mi NW 28.8 mph 40.3 mph N/A   Partly Cloudy
5:53 PM 25.0 °F 8.6 °F 3.9 °F 41% 30.17 in 10.0 mi NW 27.6 mph 43.7 mph N/A   Clear
6:53 PM 23.0 °F 9.2 °F 7.0 °F 50% 30.20 in 10.0 mi NW 17.3 mph - N/A   Clear
7:53 PM 21.9 °F 7.3 °F 8.1 °F 55% 30.22 in 10.0 mi NW 18.4 mph 26.5 mph N/A   Partly Cloudy
8:53 PM 21.0 °F 5.7 °F 9.0 °F 60% 30.24 in 10.0 mi NW 19.6 mph 28.8 mph N/A   Clear
9:53 PM 21.0 °F 3.9 °F 8.1 °F 57% 30.26 in 10.0 mi NW 25.3 mph 34.5 mph N/A   Clear
10:53 PM 19.9 °F 3.5 °F 3.9 °F 50% 30.27 in 10.0 mi NW 21.9 mph 29.9 mph N/A   Clear